Location: C.E.K. Mees Observatory
(42.7003°N, 77.4088°W)
Time: 15:14:44
(UTC-05:00)

Vanguard 3 - Pass Details

Date: 23 June 2018
Orbit: 508 x 3264 km, 33.3° (Epoch: 17 November)

Event Time Altitude Azimuth Distance (km) Brightness Sun altitude
Rises 05:26:31 0° 252° (WSW) 3,290 - -1.7°
Exits shadow 05:26:41 - 252° (WSW) 3,232 9.6 -1.7°
Reaches altitude 10° 05:28:38 10° 245° (WSW) 2,585 9.1 -1.4°
Maximum altitude 05:34:31 44° 175° (S) 1,706 8.6 -0.5°
Drops below altitude 10° 05:44:35 10° 109° (ESE) 4,397 11.5 1.1°
Sets 05:49:20 0° 104° (ESE) 5,870 12.3 1.8°
